Location: Newark
(47.0000°N, 7.6833°E)
Time: 10:38:59
(UTC+00:00)

Envisat - Pass Details

Date: 02 September 2019
Orbit: 764 x 766 km, 98.1° (Epoch: 19 September)

Event Time Altitude Azimuth Distance (km) Brightness Sun altitude
Rises 18:51:43 0° 207° (SSW) 3,220 6.3 -8.0°
Reaches altitude 10° 18:54:39 10° 225° (SW) 2,300 5.8 -8.5°
Maximum altitude 18:58:14 19° 270° (W) 1,757 5.9 -9.0°
Drops below altitude 10° 19:01:49 10° 315° (NW) 2,311 6.7 -9.6°
Sets 19:04:48 0° 333° (NNW) 3,243 7.1 -10.1°
